"Pseudo-MPEC" for P110DoQ

Created 2020 May 26 12:07:15 UT using Find_Orb

Click here for an explanation of pseudo-MPECs

 
 Astrometry: 
     P110DoQ  C2020 05 20IH*7oK0U%=W#DC^Astrometry'p(U,`SOUIredacted;i@p8h!O8F51
     P110DoQ  C2020 05 20L9mQ0$clickTTG0Vhere_k'gr\M25h8Eb/]Q0fC\6h6nvk;-!TR\F51
     P110DoQ  C2020 05 20AJ?I].%%!forKg0explanation.rtu;0!+xkyu6n\8H4tD9mmPVrF51
     P110DoQ ^C2020 05 21.57208919 38 38.230-39 51 14.22   ~5M4M 20.81GVNEOCP568
     P110DoQ ^C2020 05 21.57303719 38 38.318-39 51 14.50   ~5M4M 20.78GVNEOCP568
     P110DoQ ^C2020 05 21.57398719 38 38.408-39 51 14.76   ~5M4M 20.90GVNEOCP568

Station data:
(568) Mauna Kea  (N19.826116 W155.472200)  US/Hawaii.
(F51) Pan-STARRS 1, Haleakala  (N20.707235 W156.255910)  US/Hawaii.
   Observers N. Primak, A. Schultz, S. Watters, J. Thiel, T. Goggia. Measurer
   PS1 Science Consortium. 1.8-m Ritchey-Chrétien + CCD.

Orbital elements:  P110DoQ
   Perihelion 2020 May 4.753950 +/- 49.3 TT = 18:05:41 (JD 2458974.253950)
Epoch 2020 May 21.0 TT = JDT 2458990.5   Earth MOID: 0.4135   Ma: 0.0647
M   4.45096129 +/- 26               (J2000 ecliptic)          AutoNEOCP
n   0.27397190 +/- 0.229            Peri.  249.84551 +/- 110
a   2.34782304 +/- 1.31             Node   355.15560 +/- 28
e   0.4019213 +/- 0.245             Incl.    6.87299 +/- 4.0
P   3.60                   H 20.2   G  0.15   U 11.8  SR
q 1.40418285 +/- 0.446    Q 3.29146323 +/- 36.1
From 6 observations 2020 May 20-21 (25.0 hr); mean residual 0".12
Residuals in arcseconds: 
200520 F51  .11-  .07-    200520 F51  .23+  .24+    200521 568  .01-  .01-    
200520 F51  .12-  .16-    200521 568  .03-  .01-    200521 568  .04+  .02+    

Ephemerides (geocentric):
Date (UTC) HH   RA              Dec         delta   r     elong  mag " sig PA
---- -- -- --  -------------   -----------  ------ ------ -----  --- ---- ---
2020 05 26 12  19 46 01.576   -40 13 47.36  .52720 1.4183 131.4 21.0  368  13
2020 05 26 13  19 46 04.937   -40 13 58.14  .52711 1.4184 131.5 21.0  374  13
2020 05 26 14  19 46 08.291   -40 14 08.91  .52701 1.4184 131.5 21.0  380  13
2020 05 26 15  19 46 11.639   -40 14 19.66  .52692 1.4185 131.5 21.0  386  13
2020 05 26 16  19 46 14.980   -40 14 30.40  .52683 1.4185 131.5 21.0  392  13
2020 05 26 17  19 46 18.314   -40 14 41.13  .52674 1.4186 131.6 21.0  398  13
2020 05 26 18  19 46 21.642   -40 14 51.85  .52665 1.4186 131.6 21.0  404  13
2020 05 26 19  19 46 24.963   -40 15 02.55  .52656 1.4187 131.6 21.0  411  13
2020 05 26 20  19 46 28.278   -40 15 13.23  .52647 1.4187 131.6 21.0  417  13
2020 05 26 21  19 46 31.585   -40 15 23.91  .52638 1.4188 131.7 21.0  423  13
2020 05 26 22  19 46 34.887   -40 15 34.57  .52629 1.4189 131.7 21.0  430  13
2020 05 26 23  19 46 38.181   -40 15 45.22  .52620 1.4189 131.7 21.0  436  13
2020 05 27 00  19 46 41.469   -40 15 55.85  .52611 1.4190 131.8 21.0  443  13
2020 05 27 01  19 46 44.750   -40 16 06.47  .52602 1.4190 131.8 21.0  449  13
2020 05 27 02  19 46 48.025   -40 16 17.08  .52593 1.4191 131.8 21.0  456  13
2020 05 27 03  19 46 51.292   -40 16 27.67  .52584 1.4191 131.8 21.0  463  13
2020 05 27 04  19 46 54.554   -40 16 38.25  .52575 1.4192 131.9 21.0  469  13
2020 05 27 05  19 46 57.808   -40 16 48.81  .52566 1.4192 131.9 21.0  476  13
2020 05 27 06  19 47 01.056   -40 16 59.37  .52557 1.4193 131.9 21.0  483  13
2020 05 27 07  19 47 04.297   -40 17 09.91  .52548 1.4193 131.9 21.0  490  13
2020 05 27 08  19 47 07.531   -40 17 20.43  .52540 1.4194 132.0 21.0  497  13
2020 05 27 09  19 47 10.759   -40 17 30.94  .52531 1.4195 132.0 21.0  504  13
2020 05 27 10  19 47 13.980   -40 17 41.44  .52522 1.4195 132.0 21.0  511  13
2020 05 27 11  19 47 17.195   -40 17 51.93  .52513 1.4196 132.0 21.0  518  13
2020 05 27 12  19 47 20.402   -40 18 02.40  .52504 1.4196 132.1 21.0  525  13
2020 05 27 13  19 47 23.603   -40 18 12.85  .52495 1.4197 132.1 21.0  532  13
2020 05 27 14  19 47 26.798   -40 18 23.30  .52487 1.4197 132.1 21.0  540  13
2020 05 27 15  19 47 29.985   -40 18 33.73  .52478 1.4198 132.1 21.0  547  13
2020 05 27 16  19 47 33.166   -40 18 44.14  .52469 1.4199 132.2 21.0  554  13
2020 05 27 17  19 47 36.340   -40 18 54.55  .52460 1.4199 132.2 21.0  562  13
2020 05 27 18  19 47 39.508   -40 19 04.93  .52452 1.4200 132.2 21.0  569  13
2020 05 27 19  19 47 42.669   -40 19 15.31  .52443 1.4200 132.2 21.0  577  13
2020 05 27 20  19 47 45.823   -40 19 25.67  .52434 1.4201 132.3 21.0  585  13
2020 05 27 21  19 47 48.970   -40 19 36.02  .52425 1.4201 132.3 21.0  592  13
2020 05 27 22  19 47 52.111   -40 19 46.35  .52417 1.4202 132.3 21.0  600  13
2020 05 27 23  19 47 55.245   -40 19 56.67  .52408 1.4202 132.3 21.0  608  13
2020 05 28 00  19 47 58.372   -40 20 06.98  .52399 1.4203 132.4 21.0  616  13
2020 05 28 01  19 48 01.493   -40 20 17.27  .52391 1.4204 132.4 21.0  623  13
2020 05 28 02  19 48 04.607   -40 20 27.55  .52382 1.4204 132.4 21.0  631  13
2020 05 28 03  19 48 07.714   -40 20 37.82  .52374 1.4205 132.4 21.0  639  13
2020 05 28 04  19 48 10.814   -40 20 48.07  .52365 1.4205 132.5 21.0  648  13
2020 05 28 05  19 48 13.908   -40 20 58.30  .52356 1.4206 132.5 21.0  656  13
2020 05 28 06  19 48 16.995   -40 21 08.53  .52348 1.4207 132.5 21.0  664  13
2020 05 28 07  19 48 20.075   -40 21 18.74  .52339 1.4207 132.5 21.0  672  13
2020 05 28 08  19 48 23.148   -40 21 28.93  .52331 1.4208 132.6 21.0  680  13
2020 05 28 09  19 48 26.215   -40 21 39.11  .52322 1.4208 132.6 21.0  689  13
2020 05 28 10  19 48 29.275   -40 21 49.28  .52314 1.4209 132.6 21.0  697  13
2020 05 28 11  19 48 32.328   -40 21 59.44  .52305 1.4209 132.6 21.0  706  13